Weather History for Springfield, CO

Change the Weather History Date:

Sunday, March 17, 2013

  Actual Average Record
Temperature  
Mean Temperature 45 °F -  
Max Temperature 64 °F 58 °F 83 °F (2012)
Min Temperature 26 °F 28 °F 21 °F (2002)
Degree Days  
Heating Degree Days 20 22  
Month to date heating degree days 338 410  
Since 1 July heating degree days 4115 4416  
Cooling Degree Days 0 0  
Month to date cooling degree days 0 0  
Year to date cooling degree days 0 0  
Moisture  
Dew Point 30 °F    
Average Humidity 59    
Maximum Humidity 85    
Minimum Humidity 32    
Precipitation  
Precipitation 0.02 in 0.04 in 0.75 in (2008)
Month to date precipitation 0.09 0.55  
Year to date precipitation 0.22 1.36  
Sea Level Pressure  
Sea Level Pressure 29.66 in    
Wind  
Wind Speed 11 mph (SSE)    
Max Wind Speed 37 mph    
Max Gust Speed 46 mph    
T = Trace of Precipitation, MM = Missing Value Source: NWS Daily Summary

Daily Weather History Graph

Daily Weather History Graph

Search for Another Location

Airport:

Trip Planner

Search our weather history database for the weather conditions in past years. The results will help you decide how hot, cold, wet, or windy it might be!

Date:

Astronomy

Mar. 17, 2013 Rise Set
Actual Time 6:58 AM MDT 6:59 PM MDT
Civil Twilight 6:32 AM MDT 7:25 PM MDT
Nautical Twilight 6:01 AM MDT 7:56 PM MDT
Astronomical Twilight 5:31 AM MDT 8:26 PM MDT
Moon 10:19 AM MDT (3/17) 12:02 AM MDT (3/17)
Length of Visible Light 12h 53m
Length of Day
12h 01m
Waxing Crescent, 32% of the Moon is Illuminated
Mar 17
Waxing Crescent
Mar 19
First Quarter
Mar 27
Full
Apr 2
Last Quarter
Apr 10
New

Hourly Weather History & Observations

Time (MDT) Temp. Windchill Dew Point Humidity Pressure Visibility Wind Dir Wind Speed Gust Speed Precip Events Conditions
12:56 AM 34.0 °F 28.0 °F 25.0 °F 70% 29.85 in - SSE 6.9 mph - N/A   Unknown
1:56 AM 33.1 °F 26.9 °F 25.0 °F 72% 29.84 in - South 6.9 mph - N/A   Unknown
2:56 AM 30.0 °F 25.2 °F 24.1 °F 79% 29.83 in - SE 4.6 mph - N/A   Unknown
3:56 AM 30.0 °F 26.5 °F 25.0 °F 82% 29.81 in - ESE 3.5 mph - N/A   Unknown
4:56 AM 30.0 °F 23.2 °F 24.1 °F 79% 29.81 in - South 6.9 mph - N/A   Unknown
5:56 AM 28.0 °F - 24.1 °F 85% 29.81 in - Calm Calm - N/A   Unknown
6:56 AM 27.0 °F 20.5 °F 23.0 °F 85% 29.82 in - SW 5.8 mph - N/A   Unknown
7:56 AM 28.9 °F 22.8 °F 25.0 °F 85% 29.81 in - SSW 5.8 mph - N/A   Unknown
8:56 AM 37.9 °F 31.5 °F 27.0 °F 65% 29.77 in - South 9.2 mph - N/A   Unknown
9:56 AM 45.0 °F 37.4 °F 28.0 °F 52% 29.72 in - SSW 18.4 mph - N/A   Unknown
10:56 AM 48.0 °F - 28.9 °F 48% 29.69 in - SSW 17.3 mph - N/A   Unknown
11:56 AM 55.0 °F - 30.0 °F 38% 29.64 in - SSW 17.3 mph 23.0 mph N/A   Unknown
12:56 PM 57.0 °F - 30.0 °F 36% 29.57 in - South 19.6 mph 27.6 mph N/A   Unknown
1:56 PM 61.0 °F - 30.0 °F 31% 29.49 in - South 21.9 mph 27.6 mph N/A   Unknown
2:56 PM 60.1 °F - 30.0 °F 32% 29.45 in - SSE 12.7 mph - N/A   Unknown
3:11 PM 51.8 °F - 39.2 °F 62% 29.56 in - NNW 35.7 mph 46.0 mph 0.02 in   Squalls
3:20 PM 51.8 °F - 37.4 °F 58% 29.57 in - North 23.0 mph 43.7 mph 0.02 in   Unknown
3:56 PM 55.9 °F - 42.1 °F 60% 29.50 in - NE 11.5 mph 19.6 mph 0.02 in   Unknown
4:56 PM 55.9 °F - 39.0 °F 53% 29.49 in - East 17.3 mph - N/A   Unknown
5:56 PM 54.0 °F - 33.1 °F 45% 29.50 in - ESE 15.0 mph - N/A   Unknown
6:56 PM 46.0 °F 42.5 °F 32.0 °F 58% 29.54 in - South 6.9 mph - N/A   Unknown
7:56 PM 45.0 °F 40.1 °F 34.0 °F 65% 29.58 in - SE 9.2 mph - N/A   Unknown
8:56 PM 39.9 °F - 33.1 °F 77% 29.60 in - Calm Calm - N/A   Unknown
9:56 PM 41.0 °F 33.9 °F 32.0 °F 70% 29.63 in - NW 12.7 mph - N/A   Unknown
10:56 PM 45.0 °F 38.5 °F 30.9 °F 58% 29.64 in - North 13.8 mph - N/A   Unknown
11:56 PM 41.0 °F 33.5 °F 30.9 °F 67% 29.67 in - North 13.8 mph - N/A   Unknown